,,PA_Meas_PMT16A,,PR_Meas_QMR101_102,,RH_Meas_QMH101,,SR_Meas_QMS101,,TA_Meas_QMH101,,GenWind,,GenWind,
time,status,PA,status,PR,status,RH,status,SR,status,TA,status,DirAvg,status,SpdAvg,
2013-03-17, 00:00:04,VALID,920.663,VALID,0,VALID,94.1416,VALID,0,VALID,20.4049,VALID,82,VALID,0,
2013-03-17, 00:01:04,VALID,920.691,VALID,0,VALID,94.0958,VALID,0,VALID,20.4244,VALID,82,VALID,0,
2013-03-17, 00:02:04,VALID,920.67,VALID,0,VALID,94.073,VALID,0,VALID,20.4049,VALID,82,VALID,0,
2013-03-17, 00:03:04,VALID,920.677,VALID,0,VALID,94.1721,VALID,0,VALID,20.3674,VALID,82,VALID,0,
2013-03-17, 00:04:04,VALID,920.657,VALID,0,VALID,94.3855,VALID,0,VALID,20.3284,VALID,82,VALID,0,
2013-03-17, 00:05:04,VALID,920.666,VALID,0,VALID,94.599,VALID,0,VALID,20.2278,VALID,239,VALID,0,
2013-03-17, 00:06:04,VALID,920.646,VALID,0,VALID,94.7743,VALID,0,VALID,20.1888,VALID,238,VALID,0,
2013-03-17, 00:07:04,VALID,920.637,VALID,0,VALID,95.0183,VALID,0,VALID,20.1693,VALID,239,VALID,0,
2013-03-17, 00:08:04,VALID,920.607,VALID,0,VALID,95.1555,VALID,0,VALID,20.234,VALID,239,VALID,0,
2013-03-17, 00:09:04,VALID,920.608,VALID,0,VALID,95.2927,VALID,0,VALID,20.1318,VALID,235,VALID,0,
2013-03-17, 00:10:04,VALID,920.558,VALID,0,VALID,95.3766,VALID,0,VALID,20.1318,VALID,236,VALID,0,
2013-03-17, 00:11:04,VALID,920.578,VALID,0,VALID,95.4528,VALID,0,VALID,20.0718,VALID,234,VALID,0,
2013-03-17, 00:12:04,VALID,920.581,VALID,0,VALID,95.4985,VALID,0,VALID,20.1544,VALID,224,VALID,0,
2013-03-17, 00:13:04,VALID,920.571,VALID,0,VALID,95.5748,VALID,0,VALID,20.1139,VALID,223,VALID,0,
2013-03-17, 00:14:04,VALID,920.576,VALID,0,VALID,95.651,VALID,0,VALID,20.1334,VALID,222,VALID,0,
2013-03-17, 00:15:04,VALID,920.573,VALID,0,VALID,95.6586,VALID,0,VALID,20.1334,VALID,222,VALID,0,
2013-03-17, 00:16:04,VALID,920.599,VALID,0,VALID,95.6967,VALID,0,VALID,20.1739,VALID,222,VALID,0,
2013-03-17, 00:17:04,VALID,920.568,VALID,0,VALID,95.7425,VALID,0,VALID,20.1529,VALID,228,VALID,0,
2013-03-17, 00:18:04,VALID,920.543,VALID,0,VALID,95.7349,VALID,0,VALID,20.1529,VALID,228,VALID,0,
2013-03-17, 00:19:04,VALID,920.56,VALID,0,VALID,95.8111,VALID,0,VALID,20.1529,VALID,228,VALID,0,
2013-03-17, 00:20:04,VALID,920.54,VALID,0,VALID,95.8492,VALID,0,VALID,20.1739,VALID,228,VALID,0,
2013-03-17, 00:21:04,VALID,920.498,VALID,0,VALID,95.9026,VALID,0,VALID,20.1739,VALID,252,VALID,0,
2013-03-17, 00:22:04,VALID,920.479,VALID,0,VALID,95.9636,VALID,0,VALID,20.1544,VALID,252,VALID,0,
2013-03-17, 00:23:04,VALID,920.487,VALID,0,VALID,96.0017,VALID,0,VALID,20.1108,VALID,252,VALID,0,
2013-03-17, 00:24:04,VALID,920.468,VALID,0,VALID,96.0322,VALID,0,VALID,20.1529,VALID,252,VALID,0,
2013-03-17, 00:25:04,VALID,920.449,VALID,0,VALID,96.0398,VALID,0,VALID,20.1529,VALID,252,VALID,0,
2013-03-17, 00:26:04,VALID,920.471,VALID,0,VALID,96.0779,VALID,0,VALID,20.1334,VALID,252,VALID,0,
2013-03-17, 00:27:04,VALID,920.451,VALID,0,VALID,96.0627,VALID,0.107441,VALID,20.0523,VALID,252,VALID,0,
2013-03-17, 00:28:04,VALID,920.434,VALID,0,VALID,96.0779,VALID,0,VALID,20.0538,VALID,252,VALID,0,
2013-03-17, 00:29:04,VALID,920.454,VALID,0,VALID,96.0855,VALID,0,VALID,19.9923,VALID,252,VALID,0,
2013-03-17, 00:30:04,VALID,920.452,VALID,0,VALID,96.1389,VALID,0.107441,VALID,19.9518,VALID,252,VALID,0,
2013-03-17, 00:31:04,VALID,920.399,VALID,0,VALID,96.1313,VALID,0,VALID,20.0163,VALID,252,VALID,0,
2013-03-17, 00:32:04,VALID,920.409,VALID,0,VALID,96.1618,VALID,0,VALID,19.9338,VALID,252,VALID,0,
2013-03-17, 00:33:04,VALID,920.351,VALID,0,VALID,96.1999,VALID,0.107441,VALID,19.8948,VALID,252,VALID,0,
2013-03-17, 00:34:04,VALID,920.28,VALID,0,VALID,96.2151,VALID,0.107441,VALID,19.9173,VALID,252,VALID,0,
2013-03-17, 00:35:04,VALID,920.255,VALID,0,VALID,96.2456,VALID,0.107441,VALID,19.9173,VALID,252,VALID,0,
2013-03-17, 00:36:04,VALID,920.26,VALID,0,VALID,96.2761,VALID,0.107441,VALID,19.9804,VALID,252,VALID,0,
2013-03-17, 00:37:04,VALID,920.206,VALID,0,VALID,96.2837,VALID,0.107441,VALID,19.9203,VALID,252,VALID,0,
2013-03-17, 00:38:04,VALID,920.206,VALID,0,VALID,96.3142,VALID,0.107441,VALID,19.9414,VALID,252,VALID,0,
2013-03-17, 00:39:04,VALID,920.199,VALID,0,VALID,96.3295,VALID,0,VALID,19.8213,VALID,252,VALID,0,
2013-03-17, 00:40:04,VALID,920.148,VALID,0,VALID,96.36,VALID,0,VALID,19.8603,VALID,252,VALID,0,
2013-03-17, 00:41:04,VALID,920.17,VALID,0,VALID,96.3752,VALID,0,VALID,19.7988,VALID,252,VALID,0,
2013-03-17, 00:42:04,VALID,920.162,VALID,0,VALID,96.4133,VALID,0,VALID,19.8408,VALID,252,VALID,0,
2013-03-17, 00:43:04,VALID,920.139,VALID,0,VALID,96.4286,VALID,0,VALID,19.8828,VALID,252,VALID,0,
2013-03-17, 00:44:04,VALID,920.118,VALID,0,VALID,96.4667,VALID,0,VALID,19.7973,VALID,252,VALID,0,
2013-03-17, 00:45:04,VALID,920.157,VALID,0,VALID,96.4743,VALID,0,VALID,19.7778,VALID,252,VALID,0,
2013-03-17, 00:46:04,VALID,920.132,VALID,0,VALID,96.4819,VALID,0,VALID,19.7793,VALID,252,VALID,0,
2013-03-17, 00:47:04,VALID,920.144,VALID,0,VALID,96.4591,VALID,0,VALID,19.7808,VALID,252,VALID,0,
2013-03-17, 00:48:04,VALID,920.129,VALID,0,VALID,96.4819,VALID,0,VALID,19.7208,VALID,252,VALID,0,
2013-03-17, 00:49:04,VALID,920.086,VALID,0,VALID,96.4896,VALID,0,VALID,19.7418,VALID,252,VALID,0,
2013-03-17, 00:50:04,VALID,920.058,VALID,0,VALID,96.5124,VALID,0,VALID,19.8648,VALID,252,VALID,0,
2013-03-17, 00:51:04,VALID,920.04,VALID,0,VALID,96.5582,VALID,0,VALID,19.9054,VALID,252,VALID,0,
2013-03-17, 00:52:04,VALID,919.998,VALID,0,VALID,96.5811,VALID,0,VALID,19.8198,VALID,252,VALID,0,
2013-03-17, 00:53:04,VALID,919.986,VALID,0,VALID,96.5963,VALID,0,VALID,19.7598,VALID,252,VALID,0,
2013-03-17, 00:54:04,VALID,919.964,VALID,0,VALID,96.5811,VALID,0,VALID,19.8033,VALID,187,VALID,0,
2013-03-17, 00:55:04,VALID,919.956,VALID,0,VALID,96.5658,VALID,0,VALID,19.7628,VALID,187,VALID,0,
2013-03-17, 00:56:04,VALID,919.974,VALID,0,VALID,96.5811,VALID,0,VALID,19.7208,VALID,187,VALID,0,
2013-03-17, 00:57:04,VALID,920.001,VALID,0,VALID,96.5658,VALID,0,VALID,19.7013,VALID,187,VALID,0,
2013-03-17, 00:58:04,VALID,919.984,VALID,0,VALID,96.5887,VALID,0,VALID,19.6818,VALID,187,VALID,0,
2013-03-17, 00:59:04,VALID,919.969,VALID,0,VALID,96.5734,VALID,0,VALID,19.8243,VALID,187,VALID,0,
2013-03-17, 01:00:04,VALID,919.97,VALID,0,VALID,96.6115,VALID,0,VALID,19.7643,VALID,187,VALID,0,
2013-03-17, 01:01:04,VALID,919.922,VALID,0,VALID,96.5811,VALID,0,VALID,19.6623,VALID,187,VALID,0,
2013-03-17, 01:02:04,VALID,919.956,VALID,0,VALID,96.5963,VALID,0,VALID,19.6413,VALID,187,VALID,0,
2013-03-17, 01:03:04,VALID,919.906,VALID,0,VALID,96.6115,VALID,0,VALID,19.6818,VALID,187,VALID,0,
2013-03-17, 01:04:04,VALID,919.881,VALID,0,VALID,96.6115,VALID,0,VALID,19.7238,VALID,187,VALID,0,
2013-03-17, 01:05:04,VALID,919.901,VALID,0,VALID,96.6192,VALID,0,VALID,19.6998,VALID,187,VALID,0,
2013-03-17, 01:06:04,VALID,919.883,VALID,0,VALID,96.642,VALID,0,VALID,19.8438,VALID,187,VALID,0,
2013-03-17, 01:07:04,VALID,919.86,VALID,0,VALID,96.6573,VALID,0,VALID,19.8213,VALID,187,VALID,0,
2013-03-17, 01:08:04,VALID,919.88,VALID,0,VALID,96.6649,VALID,0,VALID,19.8798,VALID,187,VALID,0,
2013-03-17, 01:09:04,VALID,919.875,VALID,0,VALID,96.6878,VALID,0,VALID,19.8408,VALID,187,VALID,0,
2013-03-17, 01:10:04,VALID,919.881,VALID,0,VALID,96.642,VALID,0,VALID,19.8048,VALID,187,VALID,0,
2013-03-17, 01:11:04,VALID,919.863,VALID,0,VALID,96.5811,VALID,0,VALID,19.6623,VALID,187,VALID,0,
2013-03-17, 01:12:04,VALID,919.859,VALID,0,VALID,96.5887,VALID,0,VALID,19.7673,VALID,108,VALID,0,
2013-03-17, 01:13:04,VALID,919.839,VALID,0,VALID,96.5811,VALID,0,VALID,19.6443,VALID,101,VALID,0,
2013-03-17, 01:14:04,VALID,919.811,VALID,0,VALID,96.5658,VALID,0,VALID,19.6038,VALID,107,VALID,0,
2013-03-17, 01:15:04,VALID,919.8,VALID,0,VALID,96.6115,VALID,0,VALID,19.6863,VALID,107,VALID,0,
2013-03-17, 01:16:04,VALID,919.809,VALID,0,VALID,96.5963,VALID,0,VALID,19.6473,VALID,107,VALID,0,
2013-03-17, 01:17:04,VALID,919.819,VALID,0,VALID,96.6039,VALID,0,VALID,19.5858,VALID,107,VALID,0,
2013-03-17, 01:18:04,VALID,919.792,VALID,0,VALID,96.5811,VALID,0,VALID,19.5663,VALID,107,VALID,0,
2013-03-17, 01:19:04,VALID,919.757,VALID,0,VALID,96.5811,VALID,0,VALID,19.5288,VALID,107,VALID,0,
2013-03-17, 01:20:04,VALID,919.817,VALID,0,VALID,96.5811,VALID,0,VALID,19.5722,VALID,98,VALID,0,
2013-03-17, 01:21:04,VALID,919.765,VALID,0,VALID,96.6115,VALID,0,VALID,19.5512,VALID,79,VALID,0,
2013-03-17, 01:22:04,VALID,919.734,VALID,0,VALID,96.6192,VALID,0,VALID,19.4478,VALID,78,VALID,0,
2013-03-17, 01:23:04,VALID,919.742,VALID,0,VALID,96.6344,VALID,0,VALID,19.3879,VALID,79,VALID,0,
2013-03-17, 01:24:04,VALID,919.708,VALID,0,VALID,96.6497,VALID,0,VALID,19.4103,VALID,79,VALID,0,
2013-03-17, 01:25:04,VALID,919.69,VALID,0,VALID,96.7183,VALID,0,VALID,19.4913,VALID,83,VALID,0,
2013-03-17, 01:26:04,VALID,919.657,VALID,0,VALID,96.7183,VALID,0,VALID,19.4732,VALID,85,VALID,0,
2013-03-17, 01:27:04,VALID,919.599,VALID,0,VALID,96.7488,VALID,0,VALID,19.4088,VALID,85,VALID,0,
2013-03-17, 01:28:04,VALID,919.573,VALID,0,VALID,96.7716,VALID,0,VALID,19.4493,VALID,84,VALID,0,
2013-03-17, 01:29:04,VALID,919.556,VALID,0,VALID,96.7945,VALID,0,VALID,19.4688,VALID,84,VALID,0,
2013-03-17, 01:30:04,VALID,919.532,VALID,0,VALID,96.8021,VALID,0,VALID,19.4688,VALID,84,VALID,0,
2013-03-17, 01:31:04,VALID,919.469,VALID,0,VALID,96.8707,VALID,0,VALID,19.5708,VALID,84,VALID,0,
2013-03-17, 01:32:04,VALID,919.446,VALID,0,VALID,96.8784,VALID,0,VALID,19.6488,VALID,84,VALID,0,
2013-03-17, 01:33:04,VALID,919.445,VALID,0,VALID,96.8707,VALID,0,VALID,19.6098,VALID,84,VALID,0,
2013-03-17, 01:34:04,VALID,919.411,VALID,0,VALID,96.8707,VALID,0,VALID,19.5722,VALID,84,VALID,0,
2013-03-17, 01:35:04,VALID,919.403,VALID,0,VALID,96.8555,VALID,0,VALID,19.4703,VALID,84,VALID,0,
2013-03-17, 01:36:04,VALID,919.396,VALID,0,VALID,96.8326,VALID,0,VALID,19.4718,VALID,84,VALID,0,
2013-03-17, 01:37:04,VALID,919.384,VALID,0,VALID,96.8479,VALID,0,VALID,19.5542,VALID,84,VALID,0,
2013-03-17, 01:38:04,VALID,919.327,VALID,0,VALID,96.8631,VALID,0,VALID,19.4283,VALID,84,VALID,0,
2013-03-17, 01:39:04,VALID,919.319,VALID,0,VALID,96.8784,VALID,0,VALID,19.3879,VALID,84,VALID,0,
2013-03-17, 01:40:04,VALID,919.285,VALID,0,VALID,96.8631,VALID,0,VALID,19.5557,VALID,84,VALID,0,
2013-03-17, 01:41:04,VALID,919.306,VALID,0,VALID,96.8784,VALID,0,VALID,19.3908,VALID,84,VALID,0,
2013-03-17, 01:42:04,VALID,919.269,VALID,0,VALID,96.8707,VALID,0,VALID,19.4118,VALID,84,VALID,0,
2013-03-17, 01:43:04,VALID,919.263,VALID,0,VALID,96.8555,VALID,0,VALID,19.3713,VALID,84,VALID,0,
2013-03-17, 01:44:04,VALID,919.28,VALID,0,VALID,96.886,VALID,0,VALID,19.3923,VALID,84,VALID,0,
2013-03-17, 01:45:04,VALID,919.266,VALID,0,VALID,96.8784,VALID,0,VALID,19.3713,VALID,84,VALID,0,
2013-03-17, 01:46:04,VALID,919.25,VALID,0,VALID,96.8936,VALID,0,VALID,19.3294,VALID,84,VALID,0,
2013-03-17, 01:47:04,VALID,919.251,VALID,0,VALID,96.9165,VALID,0,VALID,19.4298,VALID,84,VALID,0,
2013-03-17, 01:48:04,VALID,919.252,VALID,0,VALID,96.9241,VALID,0,VALID,19.5332,VALID,84,VALID,0,
2013-03-17, 01:49:04,VALID,919.251,VALID,0,VALID,96.9394,VALID,0,VALID,19.5273,VALID,84,VALID,0,
2013-03-17, 01:50:04,VALID,919.249,VALID,0,VALID,96.9394,VALID,0,VALID,19.5693,VALID,85,VALID,0,
2013-03-17, 01:51:04,VALID,919.239,VALID,0,VALID,96.9622,VALID,0,VALID,19.5063,VALID,93,VALID,0,
2013-03-17, 01:52:04,VALID,919.246,VALID,0,VALID,96.9317,VALID,0,VALID,19.5078,VALID,100,VALID,0,
2013-03-17, 01:53:04,VALID,919.227,VALID,0,VALID,96.9394,VALID,0,VALID,19.5273,VALID,108,VALID,0,
2013-03-17, 01:54:04,VALID,919.196,VALID,0,VALID,96.9317,VALID,0,VALID,19.4883,VALID,118,VALID,0,
2013-03-17, 01:55:04,VALID,919.195,VALID,0,VALID,96.8936,VALID,0,VALID,19.4493,VALID,130,VALID,0,
2013-03-17, 01:56:04,VALID,919.176,VALID,0,VALID,96.9012,VALID,0,VALID,19.4913,VALID,131,VALID,0,
2013-03-17, 01:57:04,VALID,919.144,VALID,0,VALID,96.8784,VALID,0,VALID,19.4927,VALID,133,VALID,0,
2013-03-17, 01:58:04,VALID,919.124,VALID,0,VALID,96.886,VALID,0,VALID,19.4088,VALID,134,VALID,0,
2013-03-17, 01:59:04,VALID,919.087,VALID,0,VALID,96.8784,VALID,0,VALID,19.4103,VALID,137,VALID,0,
2013-03-17, 02:00:04,VALID,919.077,VALID,0,VALID,96.8784,VALID,0,VALID,19.4313,VALID,137,VALID,0,
2013-03-17, 02:01:04,VALID,919.056,VALID,0,VALID,96.8784,VALID,0,VALID,19.3684,VALID,157,VALID,0,
2013-03-17, 02:02:04,VALID,919.044,VALID,0,VALID,96.8784,VALID,0,VALID,19.4118,VALID,161,VALID,0,
2013-03-17, 02:03:04,VALID,919.001,VALID,0,VALID,96.886,VALID,0,VALID,19.4118,VALID,168,VALID,0,
2013-03-17, 02:04:04,VALID,918.995,VALID,0,VALID,96.8784,VALID,0,VALID,19.4132,VALID,169,VALID,0,
2013-03-17, 02:05:04,VALID,919.003,VALID,0,VALID,96.9089,VALID,0,VALID,19.3923,VALID,169,VALID,0,
2013-03-17, 02:06:04,VALID,918.996,VALID,0,VALID,96.9241,VALID,0,VALID,19.3728,VALID,169,VALID,0,
2013-03-17, 02:07:04,VALID,918.994,VALID,0,VALID,96.9089,VALID,0,VALID,19.4342,VALID,169,VALID,0,
2013-03-17, 02:08:04,VALID,918.981,VALID,0,VALID,96.947,VALID,0,VALID,19.4327,VALID,169,VALID,0,
2013-03-17, 02:09:04,VALID,918.967,VALID,0,VALID,96.9317,VALID,0,VALID,19.4118,VALID,169,VALID,0,
2013-03-17, 02:10:04,VALID,918.94,VALID,0,VALID,96.9546,VALID,0,VALID,19.4327,VALID,169,VALID,0,
2013-03-17, 02:11:04,VALID,918.93,VALID,0,VALID,96.9546,VALID,0,VALID,19.4313,VALID,169,VALID,0,
2013-03-17, 02:12:04,VALID,918.943,VALID,0,VALID,96.9775,VALID,0,VALID,19.4927,VALID,169,VALID,0,
2013-03-17, 02:13:04,VALID,918.913,VALID,0,VALID,96.9775,VALID,0,VALID,19.4508,VALID,169,VALID,0,
2013-03-17, 02:14:04,VALID,918.945,VALID,0,VALID,96.9851,VALID,0,VALID,19.4298,VALID,169,VALID,0,
2013-03-17, 02:15:04,VALID,918.941,VALID,0,VALID,96.9851,VALID,0,VALID,19.4283,VALID,169,VALID,0,
2013-03-17, 02:16:04,VALID,918.947,VALID,0,VALID,96.9851,VALID,0,VALID,19.4523,VALID,169,VALID,0,
2013-03-17, 02:17:04,VALID,918.948,VALID,0,VALID,96.9927,VALID,0,VALID,19.4732,VALID,169,VALID,0,
2013-03-17, 02:18:04,VALID,918.94,VALID,0,VALID,97.0003,VALID,0,VALID,19.4298,VALID,169,VALID,0,
2013-03-17, 02:19:04,VALID,918.944,VALID,0,VALID,96.9698,VALID,0,VALID,19.4132,VALID,169,VALID,0,
2013-03-17, 02:20:04,VALID,918.933,VALID,0,VALID,96.9851,VALID,0,VALID,19.4313,VALID,169,VALID,0,
2013-03-17, 02:21:04,VALID,918.904,VALID,0,VALID,97.008,VALID,0,VALID,19.4732,VALID,169,VALID,0,
2013-03-17, 02:22:04,VALID,918.922,VALID,0,VALID,96.9927,VALID,0,VALID,19.3698,VALID,169,VALID,0,
2013-03-17, 02:23:04,VALID,918.924,VALID,0,VALID,96.9927,VALID,0,VALID,19.4118,VALID,169,VALID,0,
2013-03-17, 02:24:04,VALID,918.888,VALID,0,VALID,96.9927,VALID,0,VALID,19.4942,VALID,169,VALID,0,
2013-03-17, 02:25:04,VALID,918.892,VALID,0,VALID,96.9851,VALID,0,VALID,19.4327,VALID,169,VALID,0,
2013-03-17, 02:26:04,VALID,918.888,VALID,0,VALID,96.9927,VALID,0,VALID,19.3908,VALID,169,VALID,0,
2013-03-17, 02:27:04,VALID,918.878,VALID,0,VALID,96.9927,VALID,0,VALID,19.3518,VALID,169,VALID,0,
2013-03-17, 02:28:04,VALID,918.861,VALID,0,VALID,96.9622,VALID,0,VALID,19.3923,VALID,169,VALID,0,
2013-03-17, 02:29:04,VALID,918.805,VALID,0,VALID,96.9851,VALID,0,VALID,19.3308,VALID,169,VALID,0,
2013-03-17, 02:30:04,VALID,918.803,VALID,0,VALID,96.9851,VALID,0,VALID,19.3533,VALID,169,VALID,0,
2013-03-17, 02:31:04,VALID,918.745,VALID,0,VALID,96.9775,VALID,0,VALID,19.2918,VALID,169,VALID,0,
2013-03-17, 02:32:04,VALID,918.705,VALID,0,VALID,96.9546,VALID,0,VALID,19.3728,VALID,169,VALID,0,
2013-03-17, 02:33:04,VALID,918.68,VALID,0,VALID,96.9927,VALID,0,VALID,19.3937,VALID,169,VALID,0,
2013-03-17, 02:34:04,VALID,918.654,VALID,0,VALID,96.9927,VALID,0,VALID,19.3713,VALID,169,VALID,0,
2013-03-17, 02:35:04,VALID,918.613,VALID,0,VALID,96.9775,VALID,0,VALID,19.4132,VALID,169,VALID,0,
2013-03-17, 02:36:04,VALID,918.611,VALID,0,VALID,97.0003,VALID,0,VALID,19.3908,VALID,169,VALID,0,
2013-03-17, 02:37:04,VALID,918.618,VALID,0,VALID,97.0156,VALID,0,VALID,19.5108,VALID,169,VALID,0,
2013-03-17, 02:38:04,VALID,918.613,VALID,0,VALID,97.008,VALID,0,VALID,19.4103,VALID,169,VALID,0,
2013-03-17, 02:39:04,VALID,918.633,VALID,0,VALID,97.008,VALID,0,VALID,19.4298,VALID,144,VALID,0,
2013-03-17, 02:40:04,VALID,918.624,VALID,0,VALID,97.0156,VALID,0,VALID,19.5303,VALID,142,VALID,0,
2013-03-17, 02:41:04,VALID,918.598,VALID,0,VALID,97.0003,VALID,0,VALID,19.4493,VALID,133,VALID,0,
2013-03-17, 02:42:04,VALID,918.588,VALID,0,VALID,96.9775,VALID,0,VALID,19.4298,VALID,123,VALID,0,
2013-03-17, 02:43:04,VALID,918.598,VALID,0,VALID,96.9622,VALID,0,VALID,19.4913,VALID,117,VALID,0,
2013-03-17, 02:44:04,VALID,918.574,VALID,0,VALID,96.9241,VALID,0,VALID,19.4118,VALID,115,VALID,0,
2013-03-17, 02:45:04,VALID,918.591,VALID,0,VALID,96.886,VALID,0,VALID,19.3908,VALID,110,VALID,0,
2013-03-17, 02:46:04,VALID,918.583,VALID,0,VALID,96.8707,VALID,0,VALID,19.3923,VALID,109,VALID,0,
2013-03-17, 02:47:04,VALID,918.609,VALID,0,VALID,96.825,VALID,0,VALID,19.3533,VALID,109,VALID,0,
2013-03-17, 02:48:04,VALID,918.611,VALID,0,VALID,96.7869,VALID,0,VALID,19.3143,VALID,98,VALID,0,
2013-03-17, 02:49:04,VALID,918.636,VALID,0,VALID,96.7716,VALID,0,VALID,19.2753,VALID,98,VALID,0,
2013-03-17, 02:50:04,VALID,918.651,VALID,0,VALID,96.7793,VALID,0,VALID,19.2139,VALID,98,VALID,0,
2013-03-17, 02:51:04,VALID,918.641,VALID,0,VALID,96.8098,VALID,0,VALID,19.3562,VALID,98,VALID,0,
2013-03-17, 02:52:04,VALID,918.659,VALID,0,VALID,96.7869,VALID,0,VALID,19.3562,VALID,98,VALID,0,
2013-03-17, 02:53:04,VALID,918.661,VALID,0,VALID,96.825,VALID,0,VALID,19.2723,VALID,110,VALID,0,
2013-03-17, 02:54:04,VALID,918.635,VALID,0,VALID,96.8174,VALID,0,VALID,19.2528,VALID,111,VALID,0,
2013-03-17, 02:55:04,VALID,918.661,VALID,0,VALID,96.8174,VALID,0,VALID,19.2933,VALID,114,VALID,0,
2013-03-17, 02:56:04,VALID,918.63,VALID,0,VALID,96.8098,VALID,0,VALID,19.3143,VALID,114,VALID,0,
2013-03-17, 02:57:04,VALID,918.655,VALID,0,VALID,96.8098,VALID,0,VALID,19.2543,VALID,114,VALID,0,
2013-03-17, 02:58:04,VALID,918.662,VALID,0,VALID,96.8098,VALID,0,VALID,19.2334,VALID,114,VALID,0,
2013-03-17, 02:59:04,VALID,918.653,VALID,0,VALID,96.7945,VALID,0,VALID,19.3172,VALID,114,VALID,0,
2013-03-17, 03:00:04,VALID,918.654,VALID,0,VALID,96.7869,VALID,0,VALID,19.2348,VALID,114,VALID,0,
2013-03-17, 03:01:04,VALID,918.674,VALID,0,VALID,96.7869,VALID,0,VALID,19.2348,VALID,114,VALID,0,
2013-03-17, 03:02:04,VALID,918.659,VALID,0,VALID,96.7793,VALID,0,VALID,19.2182,VALID,114,VALID,0,
2013-03-17, 03:03:04,VALID,918.631,VALID,0,VALID,96.7869,VALID,0,VALID,19.1778,VALID,114,VALID,0,
2013-03-17, 03:04:04,VALID,918.617,VALID,0,VALID,96.7793,VALID,0,VALID,19.2377,VALID,114,VALID,0,
2013-03-17, 03:05:04,VALID,918.594,VALID,0,VALID,96.7945,VALID,0,VALID,19.1554,VALID,114,VALID,0,
2013-03-17, 03:06:04,VALID,918.576,VALID,0,VALID,96.8479,VALID,0,VALID,19.1958,VALID,134,VALID,0,
2013-03-17, 03:07:04,VALID,918.582,VALID,0,VALID,96.8403,VALID,0,VALID,19.3187,VALID,145,VALID,0,
2013-03-17, 03:08:04,VALID,918.561,VALID,0,VALID,96.8479,VALID,0,VALID,19.1749,VALID,145,VALID,0,
2013-03-17, 03:09:04,VALID,918.544,VALID,0,VALID,96.8479,VALID,0,VALID,19.1973,VALID,145,VALID,0,
2013-03-17, 03:10:04,VALID,918.55,VALID,0,VALID,96.8479,VALID,0,VALID,19.2002,VALID,148,VALID,0,
2013-03-17, 03:11:04,VALID,918.576,VALID,0,VALID,96.8326,VALID,0,VALID,19.1973,VALID,151,VALID,0,
2013-03-17, 03:12:04,VALID,918.582,VALID,0,VALID,96.8403,VALID,0,VALID,19.1568,VALID,151,VALID,0,
2013-03-17, 03:13:04,VALID,918.57,VALID,0,VALID,96.8631,VALID,0,VALID,19.2797,VALID,145,VALID,0,
2013-03-17, 03:14:04,VALID,918.569,VALID,0,VALID,96.8784,VALID,0,VALID,19.2377,VALID,123,VALID,0,
2013-03-17, 03:15:04,VALID,918.529,VALID,0,VALID,96.8707,VALID,0,VALID,19.2168,VALID,125,VALID,0,
2013-03-17, 03:16:04,VALID,918.51,VALID,0,VALID,96.8707,VALID,0,VALID,19.2197,VALID,140,VALID,0,
2013-03-17, 03:17:04,VALID,918.48,VALID,0,VALID,96.886,VALID,0,VALID,19.1749,VALID,152,VALID,0,
2013-03-17, 03:18:04,VALID,918.47,VALID,0,VALID,96.8936,VALID,0,VALID,19.2377,VALID,151,VALID,0,
2013-03-17, 03:19:04,VALID,918.46,VALID,0,VALID,96.8936,VALID,0,VALID,19.1554,VALID,151,VALID,0,
2013-03-17, 03:20:04,VALID,918.429,VALID,0,VALID,96.8784,VALID,0,VALID,19.1568,VALID,151,VALID,0,
2013-03-17, 03:21:04,VALID,918.418,VALID,0,VALID,96.9012,VALID,0,VALID,19.1359,VALID,149,VALID,0,
2013-03-17, 03:22:04,VALID,918.421,VALID,0,VALID,96.886,VALID,0,VALID,19.1359,VALID,126,VALID,0,
2013-03-17, 03:23:04,VALID,918.433,VALID,0,VALID,96.9089,VALID,0,VALID,19.2017,VALID,97,VALID,0,
2013-03-17, 03:24:04,VALID,918.4,VALID,0,VALID,96.9012,VALID,0,VALID,19.1583,VALID,94,VALID,0,
2013-03-17, 03:25:04,VALID,918.428,VALID,0,VALID,96.9012,VALID,0,VALID,19.1807,VALID,97,VALID,0,
2013-03-17, 03:26:04,VALID,918.42,VALID,0,VALID,96.8936,VALID,0,VALID,19.1193,VALID,92,VALID,0,
2013-03-17, 03:27:04,VALID,918.425,VALID,0,VALID,96.9241,VALID,0,VALID,19.0969,VALID,101,VALID,0,
2013-03-17, 03:28:04,VALID,918.404,VALID,0,VALID,96.9394,VALID,0,VALID,19.1583,VALID,109,VALID,0,
2013-03-17, 03:29:04,VALID,918.414,VALID,0,VALID,96.947,VALID,0,VALID,19.1207,VALID,98,VALID,0,
2013-03-17, 03:30:04,VALID,918.417,VALID,0,VALID,96.9394,VALID,0,VALID,19.1417,VALID,98,VALID,0,
2013-03-17, 03:31:04,VALID,918.381,VALID,0,VALID,96.9394,VALID,0,VALID,19.1193,VALID,98,VALID,0,
2013-03-17, 03:32:04,VALID,918.428,VALID,0,VALID,96.9698,VALID,0,VALID,19.0774,VALID,98,VALID,0,
2013-03-17, 03:33:04,VALID,918.409,VALID,0,VALID,96.9775,VALID,0,VALID,19.1193,VALID,98,VALID,0,
2013-03-17, 03:34:04,VALID,918.398,VALID,0,VALID,96.9775,VALID,0,VALID,19.1207,VALID,98,VALID,0,
2013-03-17, 03:35:04,VALID,918.41,VALID,0,VALID,96.9851,VALID,0,VALID,19.1207,VALID,98,VALID,0,
2013-03-17, 03:36:04,VALID,918.378,VALID,0,VALID,96.9851,VALID,0,VALID,19.0803,VALID,98,VALID,0,
2013-03-17, 03:37:04,VALID,918.398,VALID,0,VALID,96.9927,VALID,0,VALID,19.0413,VALID,98,VALID,0,
2013-03-17, 03:38:04,VALID,918.404,VALID,0,VALID,96.9775,VALID,0,VALID,18.9828,VALID,98,VALID,0,
2013-03-17, 03:39:04,VALID,918.391,VALID,0,VALID,96.9775,VALID,0.107441,VALID,18.9814,VALID,98,VALID,0,
2013-03-17, 03:40:04,VALID,918.411,VALID,0,VALID,97.0003,VALID,0.107441,VALID,19.0413,VALID,100,VALID,0,
2013-03-17, 03:41:04,VALID,918.408,VALID,0,VALID,97.0232,VALID,0,VALID,19.0369,VALID,108,VALID,0,
2013-03-17, 03:42:04,VALID,918.426,VALID,0,VALID,97.0385,VALID,0,VALID,19.1193,VALID,120,VALID,0,
2013-03-17, 03:43:04,VALID,918.444,VALID,0,VALID,97.0537,VALID,0,VALID,19.1193,VALID,138,VALID,0,
2013-03-17, 03:44:04,VALID,918.448,VALID,0,VALID,97.0613,VALID,0,VALID,19.0969,VALID,121,VALID,0,
2013-03-17, 03:45:04,VALID,918.469,VALID,0,VALID,97.0461,VALID,0,VALID,19.0398,VALID,125,VALID,0,
2013-03-17, 03:46:04,VALID,918.457,VALID,0,VALID,97.0308,VALID,0.107441,VALID,19.0218,VALID,128,VALID,0,
2013-03-17, 03:47:04,VALID,918.43,VALID,0,VALID,97.0308,VALID,0.107441,VALID,19.0008,VALID,128,VALID,0,
2013-03-17, 03:48:04,VALID,918.406,VALID,0,VALID,97.0385,VALID,0.107441,VALID,19.0008,VALID,135,VALID,0,
2013-03-17, 03:49:04,VALID,918.406,VALID,0,VALID,97.0461,VALID,0,VALID,18.9814,VALID,133,VALID,0,
2013-03-17, 03:50:04,VALID,918.388,VALID,0,VALID,97.0537,VALID,0,VALID,18.9814,VALID,138,VALID,0,
2013-03-17, 03:51:04,VALID,918.392,VALID,0,VALID,97.0613,VALID,0,VALID,18.9619,VALID,138,VALID,0,
2013-03-17, 03:52:04,VALID,918.39,VALID,0,VALID,97.069,VALID,0,VALID,18.9633,VALID,134,VALID,0,
2013-03-17, 03:53:04,VALID,918.366,VALID,0,VALID,97.0537,VALID,0,VALID,18.9619,VALID,134,VALID,0,
2013-03-17, 03:54:04,VALID,918.357,VALID,0,VALID,97.0766,VALID,0,VALID,19.0218,VALID,135,VALID,0,
2013-03-17, 03:55:04,VALID,918.361,VALID,0,VALID,97.0918,VALID,0,VALID,18.9814,VALID,137,VALID,0,
2013-03-17, 03:56:04,VALID,918.373,VALID,0,VALID,97.0994,VALID,0,VALID,19.0203,VALID,135,VALID,0,
2013-03-17, 03:57:04,VALID,918.364,VALID,0,VALID,97.0994,VALID,0,VALID,18.9799,VALID,135,VALID,0,
2013-03-17, 03:58:04,VALID,918.383,VALID,0,VALID,97.0994,VALID,0.107441,VALID,18.9814,VALID,123,VALID,0,
2013-03-17, 03:59:04,VALID,918.417,VALID,0,VALID,97.1223,VALID,0,VALID,18.9799,VALID,124,VALID,0,